Location: Piotrkow Trybunalski
(51.4000°N, 19.6830°E)
Time: 18:32:19
(UTC+01:00)

Explorer 11/Cluster Stage 4 - Visible Passes

Search period start: 30 January 2023 00:00
Search period end: 09 February 2023 00:00
Orbit: 466 x 1244 km, 28.8° (Epoch: 29 January)

Date Brightness Start Highest point End Pass type
(mag) Time Alt. Az. Time Alt. Az. Time Alt. Az.
31 Jan 10.0 06:37:30 10° S 06:38:25 10° S 06:39:19 10° SSE visible
01 Feb 9.8 06:22:50 10° S 06:24:50 11° S 06:26:48 10° SSE visible
02 Feb 9.7 06:08:41 10° S 06:11:14 12° S 06:13:45 10° SSE visible
03 Feb 9.7 05:54:44 10° SSW 05:57:37 12° S 06:00:29 10° SSE visible
04 Feb 9.6 05:40:56 10° SSW 05:43:59 12° S 05:47:03 10° SSE visible
05 Feb 9.5 05:27:14 10° SSW 05:30:21 13° S 05:33:30 10° SSE visible
06 Feb 9.5 05:13:39 10° SSW 05:16:42 13° S 05:19:50 10° SSE visible
07 Feb 9.4 05:00:09 10° SSW 05:03:04 12° S 05:06:03 10° SSE visible
08 Feb 9.4 04:46:47 10° SSW 04:49:26 12° S 04:52:08 10° SSE visible
